Theta_e
313 316 317 317 318 317 316 315 315 315 314 314 316 316 315 315 314 314 312 306 305 309 311 312 312 312 312 312 313 314 312 310 310 310 309 310 309 308 307 306 306 307 308 309 308 308 308 307 307 305 303 301 299 298 298 298 298 297 297 297 297 297 297 296 296 296 296 295 295 295 296 295 296 296 295 295 295 295 295 294 294 294 293 293 293 292
313 316 318 318 317 316 314 313 312 311 311 312 315 315 315 315 314 314 310 305 305 308 311 311 311 311 311 311 312 312 311 311 312 312 311 311 310 309 308 306 306 307 307 308 307 307 307 307 306 304 303 301 300 299 298 298 297 297 297 297 297 297 296 296 296 295 295 295 295 295 295 296 295 295 295 295 294 294 294 294 294 293 293 293 292 292
314 317 317 316 313 311 310 308 308 310 311 312 313 314 315 315 314 313 309 305 305 307 311 311 309 311 311 311 312 312 312 312 312 313 313 313 312 311 309 307 307 307 307 307 307 307 307 306 306 304 303 301 300 299 298 298 297 296 296 296 296 296 296 296 295 295 295 295 295 295 295 296 295 295 295 294 294 294 294 293 293 293 293 292 292 291
316 316 314 310 309 310 309 306 307 310 311 313 314 314 315 316 315 314 310 305 305 307 309 309 308 310 311 311 312 312 311 311 311 312 312 312 312 312 310 309 308 308 308 308 307 306 306 306 306 305 303 301 299 298 298 297 297 296 296 296 296 296 296 295 295 295 295 295 295 295 295 295 295 294 294 294 293 294 294 293 293 293 292 292 291 291
317 314 307 306 308 312 311 307 308 311 312 314 314 314 316 316 314 313 311 307 308 308 305 308 310 312 313 313 313 311 308 308 309 309 310 310 310 310 310 309 308 309 309 308 308 307 307 307 306 305 303 301 299 299 298 297 297 297 296 296 296 296 295 295 295 295 294 294 295 295 295 295 295 294 293 293 293 293 293 293 292 292 292 291 291 290
316 310 306 309 309 311 314 311 311 314 314 314 315 315 315 315 314 313 311 309 311 312 307 308 311 313 314 314 314 313 309 309 308 309 310 311 311 309 308 308 309 310 310 309 309 308 308 308 306 305 303 302 300 300 299 298 297 297 296 296 296 295 295 295 295 294 294 294 295 295 294 294 294 294 293 293 293 293 293 292 292 292 292 291 291 290
313 306 307 313 312 313 315 313 314 314 314 314 314 315 313 313 314 312 311 311 313 314 309 308 311 313 313 312 314 315 313 312 312 312 313 313 313 311 309 309 309 311 311 310 310 309 309 308 306 305 304 304 303 301 300 298 297 296 296 295 295 295 295 294 294 294 294 294 294 294 294 294 294 294 293 293 293 293 293 293 292 292 291 291 290 290
311 306 307 312 313 314 314 314 315 312 313 315 312 311 312 311 312 311 311 311 312 311 309 309 311 312 313 313 313 314 313 313 313 313 314 314 314 313 311 310 309 311 311 311 311 311 310 309 308 307 306 305 304 303 301 299 297 296 295 295 295 295 294 294 294 294 294 294 294 294 294 294 294 294 293 293 293 293 293 293 292 292 291 291 290 290
310 311 310 310 311 312 314 315 315 313 314 314 307 307 309 309 310 310 310 311 309 309 310 311 311 312 314 313 311 312 312 313 313 313 314 315 315 314 312 311 310 311 311 312 312 311 310 309 309 308 306 306 304 303 302 300 297 296 295 294 294 294 294 294 293 293 293 293 293 293 293 293 293 293 293 293 293 292 292 292 292 291 290 290 290 290
310 309 309 311 312 313 313 309 308 313 314 308 304 306 307 306 307 308 309 310 308 309 312 313 311 311 313 314 310 309 311 313 313 314 314 315 315 314 312 311 311 311 312 312 311 310 310 309 308 307 306 305 304 303 302 300 297 296 295 294 294 294 294 293 293 293 293 293 293 293 293 293 293 292 292 292 292 292 292 291 291 290 290 290 290 290
306 303 305 310 311 310 309 303 302 308 308 305 306 309 309 307 306 306 307 308 310 312 314 313 313 311 312 315 313 311 312 313 314 314 314 315 313 312 311 311 312 313 312 312 311 310 310 309 308 306 305 304 303 302 301 299 298 296 295 294 294 294 293 293 292 292 292 292 292 293 293 293 292 292 292 292 292 291 291 291 290 290 290 289 289 289
307 305 307 308 306 305 307 305 302 302 303 305 309 310 312 311 308 307 307 308 311 314 312 311 312 312 312 314 313 313 313 313 314 314 315 316 314 313 313 312 312 313 312 311 311 310 310 309 308 307 306 304 303 303 301 300 298 296 295 294 294 293 293 293 292 292 292 292 292 292 293 292 292 292 292 291 291 291 290 290 290 289 289 289 289 289
311 310 309 307 304 305 310 310 305 303 303 307 310 311 314 315 313 313 312 310 312 314 310 307 309 311 312 313 312 312 311 311 312 313 315 316 315 313 313 313 313 312 312 311 311 311 311 310 310 309 308 306 305 305 303 301 299 297 295 294 293 293 293 292 292 292 292 292 292 292 292 292 292 291 291 291 291 290 290 289 289 289 289 289 289 289
314 311 308 308 307 306 310 312 311 309 306 307 311 312 315 315 314 315 314 311 312 314 308 304 307 310 311 312 312 312 311 312 311 311 313 314 313 313 313 313 313 312 312 311 311 311 311 311 311 310 309 308 307 306 304 302 300 298 296 294 293 293 293 292 292 292 292 292 292 292 292 292 291 291 291 291 290 290 289 289 289 289 289 289 289 288
315 315 311 310 310 308 310 313 315 313 307 308 311 312 314 315 314 314 313 311 312 313 309 305 308 311 311 312 314 312 312 313 311 311 312 311 311 312 311 312 312 312 312 311 311 311 311 311 311 310 309 308 307 306 304 303 301 299 296 295 294 293 293 292 292 291 291 292 292 292 291 291 291 291 291 290 290 289 289 289 289 289 288 288 288 288
314 315 313 309 307 308 309 311 312 312 309 308 308 310 313 313 312 312 312 311 311 312 311 308 309 312 312 312 312 312 312 312 310 310 311 310 310 309 309 310 311 312 312 311 311 311 311 311 311 310 309 308 307 306 304 303 301 300 298 295 294 293 293 292 292 291 291 291 291 291 291 291 291 291 290 290 289 289 289 288 288 288 288 288 288 288
313 314 311 306 305 304 304 306 307 310 311 308 307 310 311 310 311 312 312 310 308 311 313 311 311 312 312 312 310 310 312 310 308 310 310 309 309 308 308 309 310 311 311 311 311 311 310 311 311 311 310 309 308 307 306 305 303 301 299 296 294 293 293 292 291 291 291 291 291 291 291 291 290 290 290 290 289 289 289 288 288 288 288 288 288 288
315 314 310 307 308 304 298 302 305 304 307 308 309 311 310 308 310 310 312 311 310 312 314 313 313 313 313 313 310 309 310 309 308 310 309 308 309 309 308 309 311 311 311 311 311 310 310 311 311 311 310 310 309 308 307 305 303 301 299 297 295 293 293 292 291 291 291 291 291 291 291 290 290 290 290 289 289 289 288 288 288 288 288 288 288 288
315 315 312 305 306 303 299 304 308 304 303 305 306 307 308 310 311 310 310 312 312 313 314 314 315 314 314 314 312 311 311 309 308 309 309 308 308 308 308 309 311 311 311 311 311 311 310 311 311 311 310 310 309 308 306 304 302 301 299 297 295 294 293 292 291 291 291 291 291 291 290 290 290 290 289 289 289 288 288 288 288 288 288 288 288 288
313 314 314 304 301 304 303 305 309 308 304 303 304 304 305 308 311 311 310 311 312 313 313 315 316 315 315 315 314 314 313 312 310 309 308 308 308 308 308 309 311 311 311 311 311 311 311 311 311 310 310 310 308 307 306 304 302 300 299 297 294 293 292 292 291 291 291 291 291 290 290 290 290 289 289 288 288 288 288 288 288 288 288 288 288 288
312 313 314 306 300 304 307 307 310 311 308 304 305 306 305 306 307 308 309 309 310 312 312 313 314 314 313 314 314 312 312 313 313 311 310 309 309 308 308 310 311 311 310 311 311 311 311 311 311 310 310 309 308 307 306 304 302 300 298 296 294 293 292 291 291 291 291 291 291 290 290 290 289 289 289 288 288 288 288 288 288 288 288 288 288 288
313 313 314 311 306 308 310 309 308 311 311 308 307 308 308 308 308 309 310 309 308 310 312 312 313 314 313 313 313 311 312 313 312 312 312 310 308 308 309 310 311 310 310 311 310 311 311 311 310 310 309 309 308 307 305 303 301 299 298 296 294 293 292 291 291 291 290 290 290 290 290 289 289 288 288 288 288 288 288 288 288 288 288 288 287 287
313 315 314 314 313 311 308 303 301 304 309 309 308 309 309 309 309 311 313 311 308 309 309 309 310 313 314 313 313 311 312 311 310 311 311 309 308 309 310 310 310 311 310 310 310 310 310 310 310 309 309 308 308 307 305 304 302 300 298 296 294 293 292 291 291 291 290 290 290 290 289 289 289 288 288 288 288 288 288 288 288 288 288 287 287 287
311 314 314 313 314 312 305 300 299 301 305 307 307 307 308 308 309 310 310 309 309 310 309 308 309 312 313 314 313 312 311 309 307 308 309 309 309 309 310 310 310 310 310 310 310 310 310 310 309 309 309 308 307 306 305 304 301 299 297 295 294 293 292 291 291 290 290 290 290 289 289 288 288 288 288 288 288 288 288 288 288 288 287 287 287 286
311 314 314 313 315 315 310 306 305 303 304 306 307 306 307 308 309 309 307 306 308 310 310 310 311 312 312 313 313 311 310 309 307 305 306 308 308 308 309 310 310 309 309 309 309 309 309 309 309 308 308 308 307 306 305 303 301 299 297 295 294 292 292 291 291 290 290 290 289 289 288 288 288 288 288 288 288 288 288 288 288 288 287 287 286 286
313 314 313 313 314 314 313 312 311 308 305 306 306 305 307 308 308 309 308 308 310 310 309 310 311 311 311 312 312 311 310 309 307 303 303 305 307 308 309 309 309 308 308 309 309 309 309 308 308 308 308 307 307 306 305 303 300 298 296 294 293 292 291 291 290 290 290 289 289 288 288 288 288 288 288 288 288 288 288 288 288 287 287 286 286 286
316 315 312 313 313 313 313 313 312 311 308 307 307 306 306 308 308 309 309 310 310 309 309 310 311 311 311 311 311 310 311 310 308 307 306 305 305 307 308 308 308 307 307 307 308 308 308 308 308 307 307 307 306 305 304 302 300 298 296 294 293 292 291 291 290 290 289 289 288 288 288 288 288 288 288 288 288 288 288 288 287 287 286 286 285 285
315 314 311 312 312 312 312 312 312 311 309 308 309 307 306 307 309 310 310 310 309 309 310 311 311 311 311 310 310 310 310 310 310 309 309 308 307 307 307 307 306 306 306 306 306 307 307 307 307 306 306 306 305 304 303 301 299 297 295 294 292 291 291 290 290 290 289 288 288 288 288 288 288 288 288 288 288 288 288 287 287 286 286 285 285 284
312 311 312 313 312 312 312 311 311 311 309 308 309 309 307 307 308 309 309 309 309 309 310 311 311 311 310 309 310 310 310 310 310 309 310 309 308 308 307 307 306 305 305 305 305 306 307 307 306 306 306 305 304 303 302 300 297 295 294 293 292 291 290 290 290 289 289 288 288 288 288 288 288 288 288 288 288 288 288 287 286 286 285 285 284 284
309 310 311 312 311 311 311 311 311 310 309 308 308 309 308 307 308 308 308 308 309 309 310 310 311 310 310 309 310 310 310 310 310 310 309 309 308 308 308 308 307 307 306 306 306 306 306 306 306 305 305 304 304 303 302 300 297 295 293 292 292 291 290 290 289 289 288 288 287 288 288 288 288 288 288 288 288 288 287 286 285 285 285 285 284 283
307 310 311 311 311 311 311 310 310 310 309 308 308 308 308 308 308 308 307 307 308 308 308 308 309 309 309 309 309 309 310 309 309 309 309 309 309 308 308 308 308 308 308 307 307 306 306 306 305 305 304 304 304 303 302 300 298 295 293 292 291 290 290 289 289 288 288 287 287 287 287 287 287 288 288 288 288 287 286 286 285 285 285 284 284 283
307 309 310 310 310 311 310 310 310 309 309 308 308 309 309 308 309 308 309 308 308 307 307 307 308 308 308 308 308 309 309 309 308 309 309 309 309 308 308 308 308 308 308 308 307 307 306 306 305 305 305 305 304 303 301 300 298 295 293 292 290 290 289 289 288 288 287 287 287 287 287 288 288 288 288 288 287 286 286 285 285 285 285 284 283 283
308 309 309 310 310 310 311 311 310 310 310 309 310 309 309 309 309 309 310 310 309 309 309 309 309 309 308 309 309 308 309 309 309 309 309 309 309 308 308 308 308 308 308 308 308 307 307 306 306 306 306 305 304 303 302 301 298 296 294 292 290 290 289 289 288 287 287 287 287 287 287 288 288 288 288 287 287 286 285 285 285 285 284 284 283 282
308 308 309 309 310 310 311 311 310 311 311 311 311 310 310 310 310 310 310 310 310 310 309 309 309 309 309 310 309 310 309 310 310 310 309 309 309 308 308 308 308 308 308 308 308 307 307 307 306 306 305 305 304 303 302 300 297 295 294 292 290 289 289 288 287 287 287 287 287 287 287 288 288 288 287 287 286 285 285 285 285 285 284 283 282 281
308 308 308 309 309 310 310 310 311 311 311 311 311 311 310 309 310 310 310 310 310 310 310 309 309 309 309 310 310 310 310 310 310 310 309 309 309 308 308 308 308 308 308 308 308 308 307 307 306 306 305 304 303 301 300 298 296 294 293 291 290 289 288 288 287 287 287 287 287 287 287 288 288 287 287 286 285 285 285 285 285 284 283 283 281 281
308 307 308 308 309 310 310 310 311 312 310 309 309 309 309 309 309 309 310 310 309 309 309 309 309 309 309 310 310 310 310 309 309 309 309 309 308 308 308 308 308 308 308 308 308 308 308 307 307 306 305 304 302 300 299 297 296 294 292 290 289 289 288 287 287 287 287 287 287 287 287 288 288 287 286 286 285 285 285 285 284 284 283 282 281 280
308 308 308 309 310 310 310 310 311 311 310 309 309 309 309 309 308 309 310 310 309 308 309 308 308 308 308 309 309 309 309 308 308 308 308 308 308 308 308 308 308 308 309 309 308 308 307 307 307 305 304 303 302 300 299 297 295 293 291 289 289 288 287 287 287 287 287 287 287 287 288 288 287 287 286 285 285 285 285 285 284 283 282 281 280 280
308 308 309 309 310 310 310 310 310 311 311 311 310 310 310 310 309 309 310 309 309 308 309 308 308 308 308 308 309 308 308 307 307 308 308 308 308 308 308 309 309 309 309 309 308 308 308 308 306 305 304 303 301 300 299 297 294 292 290 289 288 287 287 286 287 287 287 287 287 287 288 287 287 286 285 285 285 285 285 284 283 282 281 280 280 279
307 308 308 309 310 311 311 311 311 311 311 310 310 310 309 310 309 308 309 309 309 309 309 309 309 308 309 309 308 308 308 308 308 308 309 309 309 309 309 310 310 310 310 309 308 308 308 307 306 304 303 302 301 300 298 296 294 292 290 288 288 287 286 286 287 287 287 287 287 288 288 287 286 286 285 285 285 285 285 284 283 282 281 280 279 279
308 308 308 309 309 310 311 311 311 311 310 310 310 309 308 308 308 309 310 310 309 309 310 309 309 309 309 308 308 308 309 308 308 309 310 310 310 310 310 310 311 311 310 309 309 308 307 307 307 306 305 304 303 301 299 296 293 291 289 288 287 287 287 287 287 287 287 287 288 288 287 287 286 285 285 285 285 285 284 283 282 281 280 279 278 278
308 308 309 309 309 309 310 311 311 311 310 311 311 309 307 307 308 309 310 311 309 310 310 309 309 309 308 308 308 308 308 308 309 310 310 310 309 310 310 310 311 311 311 309 309 308 308 308 308 308 306 305 303 301 299 296 293 290 289 288 287 287 287 287 287 287 287 287 288 287 287 286 285 285 285 285 285 284 283 282 281 280 279 278 278 277
309 309 309 309 309 309 310 310 310 311 311 311 310 307 306 308 310 310 310 310 310 310 310 309 309 309 309 308 308 308 308 309 309 309 309 309 309 309 309 309 309 310 310 309 308 308 308 307 307 306 304 303 302 300 298 296 292 290 288 287 287 287 287 287 287 287 287 288 287 287 286 285 285 284 285 285 284 284 283 282 280 279 278 278 277 277
311 310 309 309 309 309 309 310 311 311 312 311 309 307 306 308 310 310 310 310 310 310 309 310 309 309 309 308 308 308 308 308 309 309 309 310 310 310 309 309 308 308 309 309 309 308 308 307 306 305 303 302 300 298 297 295 292 290 288 287 286 286 287 287 287 287 287 287 287 287 286 285 284 284 285 284 284 283 282 281 279 278 278 277 277 276
312 311 309 309 309 310 309 310 310 310 310 310 309 308 308 308 309 310 310 310 310 310 310 309 309 309 309 308 308 308 308 308 308 309 309 310 310 310 310 309 308 307 307 308 308 307 306 306 304 303 301 300 299 297 295 293 291 289 287 286 286 286 286 287 287 287 287 288 287 286 285 284 284 284 284 284 283 282 281 279 278 278 277 277 276 276
312 312 311 310 310 310 310 310 309 309 309 309 309 309 309 309 309 309 310 310 310 310 310 310 309 309 309 308 308 308 307 307 308 309 309 309 310 310 310 309 308 306 306 306 305 305 304 304 303 302 300 298 296 295 293 291 290 289 287 286 286 286 286 287 287 287 288 287 287 285 284 284 284 284 284 283 282 281 280 279 278 277 277 276 276 275
311 311 312 312 311 311 310 310 310 309 309 309 309 309 309 309 309 309 309 309 309 310 309 309 309 309 309 308 307 307 307 307 308 308 309 309 309 309 309 308 308 306 305 304 304 303 301 300 300 299 299 297 294 292 291 290 289 288 286 286 286 286 287 287 287 288 288 287 286 284 284 284 284 284 283 283 282 280 279 278 277 277 276 276 276 275
312 311 311 312 312 312 312 312 311 310 309 309 309 309 309 309 309 309 309 308 308 309 309 309 309 309 308 308 307 307 307 307 307 308 308 308 308 308 309 308 308 307 306 305 304 302 301 300 298 297 297 296 293 291 289 287 286 286 286 286 286 286 287 287 288 288 288 286 284 283 284 284 284 283 283 282 281 280 279 278 277 277 276 276 275 275
309 307 306 309 310 311 311 311 310 310 310 309 309 309 308 308 309 308 308 308 308 308 308 308 308 308 307 307 306 306 307 307 307 307 307 307 307 307 308 308 307 307 306 304 302 301 300 300 299 298 297 295 293 291 288 286 285 285 286 286 286 287 287 287 288 288 287 285 283 283 284 283 283 282 282 281 280 279 278 278 277 276 276 275 275 274
306 305 305 307 308 307 308 308 308 309 310 310 309 309 309 308 308 308 308 307 307 307 307 307 307 307 306 306 306 306 306 306 307 307 306 306 307 307 307 307 307 306 305 303 302 302 301 300 300 299 297 295 293 290 287 285 284 284 285 286 286 287 287 288 287 287 285 283 283 283 283 283 282 282 281 280 279 279 278 277 277 276 275 274 274 273
304 304 305 306 306 306 308 309 310 310 310 310 310 310 309 309 308 308 308 307 307 307 307 307 307 307 307 307 307 306 306 306 307 307 306 306 306 306 307 307 306 305 304 302 301 301 300 299 298 297 296 294 292 289 286 285 284 284 285 286 287 287 288 288 287 285 283 283 283 283 282 282 281 281 280 280 279 278 277 277 276 276 275 274 273 273
304 304 305 305 305 306 307 307 307 307 307 308 308 308 308 308 308 308 308 308 308 308 308 308 307 307 307 307 307 307 306 306 307 307 307 306 307 306 306 306 305 304 303 302 300 300 298 296 295 294 294 292 290 288 285 284 284 285 285 286 287 287 287 287 287 285 284 283 283 282 281 281 280 280 280 279 278 277 276 275 275 275 274 274 273 272
Wind_Speed
4 3 6 9 9 8 9 11 8 2 1 3 2 4 7 8 9 6 3 3 2 4 11 14 14 18 20 18 21 25 18 17 24 25 29 28 22 26 31 33 36 38 38 36 36 38 38 40 42 45 47 47 47 45 44 43 41 40 39 37 35 32 29 27 26 24 23 21 20 18 15 13 11 10 10 9 9 9 10 11 13 15 16 19 20 22
3 6 11 11 6 2 3 5 3 1 2 4 5 5 6 7 9 4 3 3 4 3 9 10 12 17 19 18 21 23 15 19 29 25 27 27 22 28 32 32 35 36 36 35 36 38 38 38 41 44 47 48 49 48 46 45 43 41 40 38 36 33 30 29 27 25 24 22 21 18 16 14 12 11 10 9 9 9 10 11 13 15 17 19 21 22
4 10 12 4 5 5 3 3 5 6 4 4 3 3 6 5 5 4 3 3 4 4 6 7 10 16 19 19 22 23 16 23 36 30 27 27 23 27 30 31 33 33 34 34 35 37 36 36 39 43 47 49 50 49 48 47 45 43 41 40 37 34 31 30 28 27 25 23 21 19 17 15 13 13 11 10 9 9 10 12 13 15 17 19 21 22
5 8 5 5 8 7 3 3 6 5 4 5 4 5 7 2 2 5 1 2 4 4 6 9 11 14 16 17 19 20 16 22 32 28 28 30 28 28 27 29 31 30 33 34 34 35 34 34 37 42 47 50 50 50 49 48 47 45 43 41 39 35 33 31 29 28 26 25 23 20 18 16 14 13 11 10 9 10 11 12 14 16 17 19 21 22
9 3 5 7 5 7 4 5 7 6 5 6 6 8 9 4 4 6 2 2 5 4 3 8 11 10 9 10 10 6 5 13 19 19 24 32 33 31 27 29 30 29 30 31 32 32 31 32 35 39 45 48 50 51 51 51 49 47 45 43 40 36 34 32 31 29 28 26 24 22 20 17 16 14 12 11 10 10 11 13 15 16 18 19 20 21
9 3 9 7 3 5 5 5 8 8 5 5 8 12 12 7 5 3 3 4 5 4 1 3 10 7 3 5 5 1 2 7 8 9 17 26 27 24 26 28 27 26 27 28 29 28 28 30 33 36 42 46 49 51 52 52 50 48 46 43 40 37 35 33 31 30 29 27 25 23 21 19 17 15 13 11 11 11 12 13 15 17 19 19 20 21
3 3 5 4 5 6 6 7 7 8 6 5 4 7 9 7 4 2 1 2 5 4 0 2 7 9 3 6 6 3 4 6 5 6 11 21 25 21 22 24 22 22 24 25 25 25 26 29 32 34 38 42 46 49 51 52 51 48 46 44 40 37 36 34 33 32 31 29 27 24 22 20 18 15 13 12 12 12 13 14 15 16 18 19 19 20
3 4 3 4 6 6 7 7 6 10 7 3 1 2 4 5 4 4 4 4 4 4 3 3 5 11 8 9 11 9 10 9 10 13 12 18 30 30 24 23 21 21 22 21 22 23 26 28 30 32 33 36 40 45 49 51 51 49 47 44 41 38 37 35 34 33 32 30 27 25 23 21 18 15 14 13 13 13 14 15 16 17 18 18 19 20
3 5 7 8 7 7 7 2 6 12 6 1 2 3 4 4 3 5 3 4 2 4 5 7 8 9 9 7 7 8 11 12 13 18 15 15 26 30 25 22 20 18 18 18 20 22 23 24 25 26 28 31 36 42 46 49 50 49 47 45 41 39 38 37 36 34 32 30 28 25 23 21 18 16 14 14 14 14 15 16 17 18 17 18 19 20
2 3 5 7 7 6 3 4 1 7 4 3 5 5 6 5 4 3 2 3 2 4 7 9 11 7 10 6 8 2 7 11 12 13 13 13 19 24 23 20 16 15 17 17 18 19 20 20 21 22 25 29 34 39 42 46 49 49 48 46 43 41 39 38 37 35 33 31 28 26 23 21 18 16 15 15 15 15 16 17 18 18 18 18 19 20
3 2 0 4 5 2 5 5 4 1 3 7 6 4 4 3 3 1 1 0 4 7 7 11 16 12 10 2 9 5 6 10 10 8 9 11 15 21 22 19 15 16 16 15 16 16 16 18 19 21 24 27 31 35 40 45 48 49 49 47 45 43 41 39 38 36 34 31 29 26 23 21 18 17 16 16 16 17 18 18 18 19 19 19 20 20
2 2 2 3 4 5 6 5 5 4 3 4 3 2 1 1 2 2 2 2 6 7 2 6 13 14 11 4 7 6 5 9 9 8 9 8 12 21 23 19 16 18 16 14 14 14 15 17 19 20 23 26 29 33 38 43 47 50 50 49 47 45 43 41 39 38 35 32 29 27 24 21 19 18 17 16 17 18 18 19 19 19 20 20 21 21
3 4 2 2 5 8 5 4 4 2 2 4 3 3 2 3 2 3 3 4 6 6 2 3 4 9 14 11 6 5 4 8 9 8 9 7 11 21 23 18 17 20 18 15 14 14 16 18 18 20 22 25 27 30 35 41 46 50 51 51 49 47 45 43 41 39 36 33 30 27 24 21 20 19 18 17 18 18 19 19 19 20 21 21 22 22
3 1 4 4 3 10 12 7 5 4 6 9 7 6 5 4 2 5 5 3 5 4 3 4 2 6 11 9 11 15 13 13 13 15 18 15 15 18 18 16 18 21 20 17 16 17 18 18 18 20 22 24 25 28 33 38 43 48 51 52 51 49 47 44 42 40 37 34 30 27 25 22 21 20 19 18 18 19 19 20 20 21 21 22 22 23
5 5 7 9 4 12 17 9 2 4 7 8 5 4 5 4 4 6 5 5 6 4 2 4 3 5 5 1 7 13 14 16 16 22 27 24 21 18 14 15 19 23 22 20 19 19 20 19 18 20 22 23 25 27 32 36 40 46 50 52 53 52 49 46 43 41 38 34 31 28 25 23 22 20 19 19 19 19 20 20 21 21 22 23 24 25
6 7 4 4 2 11 10 2 4 6 5 3 2 1 4 4 5 4 3 1 3 6 4 5 4 7 4 1 3 2 5 7 10 19 23 23 26 23 17 18 21 23 24 23 23 24 23 21 20 21 22 23 25 28 31 35 38 43 48 52 54 53 50 47 45 42 38 35 31 28 26 24 23 21 20 20 19 20 20 20 21 21 22 24 25 27
4 4 3 4 2 3 1 4 3 1 2 4 3 4 3 0 3 4 3 2 2 6 7 4 6 10 7 4 6 6 6 4 4 12 15 19 27 25 22 25 26 26 27 27 28 27 25 23 22 23 24 24 25 27 29 32 35 39 44 50 54 54 51 48 45 42 39 35 32 29 27 25 23 21 20 20 20 20 21 21 21 22 23 24 26 28
4 2 1 3 0 1 3 3 2 3 1 4 4 5 3 2 0 2 3 1 2 7 7 5 10 13 10 5 4 7 8 6 8 12 11 14 19 19 25 34 34 32 30 29 29 29 27 25 24 25 25 25 25 26 29 31 34 38 42 48 54 55 52 49 46 43 39 35 32 29 28 25 23 21 20 20 20 20 21 21 22 23 24 25 27 29
3 2 2 1 1 3 2 1 2 1 1 1 2 2 1 2 3 3 2 3 6 7 7 12 16 15 11 6 2 6 10 10 12 13 10 11 12 14 26 35 35 33 31 28 29 30 29 28 26 27 26 26 26 27 30 32 35 38 42 47 53 54 53 50 47 43 39 36 33 30 28 25 23 22 21 21 20 20 21 21 22 23 25 26 28 31
3 4 3 0 2 2 2 4 6 5 3 0 2 2 2 2 2 3 2 2 5 6 8 14 17 14 6 5 4 6 9 11 11 10 11 12 13 18 27 33 33 32 31 29 29 31 32 30 27 28 28 27 27 28 31 34 35 38 41 47 53 54 53 50 46 43 40 37 34 30 28 25 23 22 21 21 20 20 21 21 23 24 25 27 29 31
3 4 5 1 2 2 4 7 9 9 8 6 5 6 5 2 1 2 2 2 3 5 7 9 13 14 2 7 4 4 6 8 8 8 9 10 16 25 32 33 32 31 30 28 28 30 32 31 28 28 29 29 30 31 32 34 36 38 42 47 53 55 54 51 47 44 41 37 34 30 28 25 23 22 21 21 20 20 21 21 23 24 26 28 30 32
3 4 6 3 2 5 5 3 3 3 3 6 7 8 9 7 4 3 5 3 1 5 7 5 10 16 4 6 3 3 4 4 6 7 7 9 20 31 35 34 30 28 28 27 28 30 31 31 29 30 31 31 32 33 34 36 37 40 43 47 52 55 55 53 49 45 41 37 34 30 28 25 24 22 21 20 20 20 21 22 23 25 27 29 31 33
3 2 5 6 5 4 2 2 1 2 2 2 4 5 7 7 6 7 7 3 2 4 5 1 7 14 3 6 2 3 5 4 7 9 7 11 23 31 32 32 27 25 26 27 29 30 30 31 31 32 33 33 34 35 36 37 39 41 43 47 52 55 56 54 50 46 41 37 33 30 28 26 24 22 21 20 20 20 21 22 24 26 28 30 32 34
3 1 4 5 4 2 1 2 2 0 1 3 6 6 6 7 9 7 4 1 2 5 5 3 6 14 3 6 1 1 4 4 8 11 9 12 22 28 28 28 25 24 26 27 29 31 31 33 33 34 35 35 36 37 37 39 40 41 44 47 52 56 57 55 50 45 41 37 33 30 28 26 23 22 20 19 19 20 21 22 24 27 28 30 32 34
7 3 4 4 5 5 3 3 3 3 4 5 5 7 9 10 10 4 2 1 4 12 12 6 9 14 5 4 2 3 3 4 6 10 12 13 19 25 27 26 24 26 27 28 30 32 34 34 35 37 37 37 38 39 39 40 41 42 45 47 52 56 57 55 50 45 41 37 33 30 28 25 23 21 20 19 19 20 21 23 25 27 29 30 32 33
9 4 7 8 9 10 10 10 5 4 6 5 4 9 13 15 17 10 4 6 10 13 12 9 13 15 11 10 9 6 6 6 5 7 12 17 20 23 26 26 28 29 29 29 32 34 35 36 38 39 39 39 40 40 40 41 42 43 46 48 53 56 57 54 49 45 41 36 33 30 27 25 22 21 20 19 19 20 21 23 25 27 29 30 31 31
4 4 12 15 15 14 15 16 6 6 7 7 7 13 15 18 20 13 7 11 9 4 8 14 18 17 16 21 23 19 15 12 8 7 10 17 24 26 26 29 33 33 32 32 34 35 36 38 40 40 40 40 41 41 41 41 42 44 47 50 54 57 57 53 48 44 40 36 33 30 27 25 22 20 19 18 19 20 22 24 25 26 28 29 30 29
1 5 13 18 21 20 20 24 16 7 10 10 10 14 16 17 19 16 17 14 5 3 10 19 19 17 16 21 27 28 22 14 10 11 13 17 21 22 24 30 33 34 34 34 35 35 37 40 42 41 40 41 42 42 41 41 43 45 48 52 55 57 56 52 48 43 39 35 33 29 27 24 21 20 19 18 19 21 22 23 24 25 27 28 27 27
2 7 12 15 20 20 19 24 22 13 10 10 10 13 14 17 20 22 23 16 9 10 16 16 18 19 16 21 28 26 19 13 12 16 19 19 19 20 23 29 32 32 33 34 35 36 39 43 43 41 41 42 42 42 41 42 44 46 50 53 56 57 55 51 46 42 38 35 32 29 26 23 21 19 18 18 19 21 22 22 23 24 25 26 25 25
3 7 13 15 17 18 18 21 22 16 10 9 11 10 11 18 22 21 19 17 18 21 16 11 17 20 18 23 26 23 22 21 20 24 27 26 28 30 30 33 36 35 34 36 39 41 43 45 43 41 41 42 43 42 42 43 45 48 51 55 57 57 54 50 45 41 38 35 31 28 25 22 20 19 18 19 20 21 21 21 22 23 23 24 24 24
5 8 12 13 12 15 19 23 24 19 15 15 15 12 17 24 22 17 16 16 17 19 15 13 15 16 19 23 22 23 27 24 21 26 30 31 33 33 32 35 38 36 35 40 43 43 43 43 41 41 42 42 43 42 43 44 45 48 52 55 57 57 53 49 45 41 37 34 30 27 24 21 19 18 18 19 19 19 20 20 21 22 22 22 23 24
5 8 9 9 10 12 17 22 21 16 12 10 13 19 27 26 18 17 18 15 13 14 16 15 13 13 19 22 19 20 23 20 19 22 26 31 32 27 27 33 36 36 38 42 42 40 40 41 41 41 43 43 42 43 44 44 46 49 53 56 58 56 52 47 44 40 37 33 30 26 23 21 19 18 18 18 18 18 18 19 20 21 21 21 22 24
5 7 7 8 9 11 16 18 13 7 5 7 15 26 29 23 19 21 21 18 17 15 12 12 13 15 19 19 18 19 19 18 19 21 24 29 27 23 27 34 37 39 42 41 39 38 39 40 41 42 42 42 42 43 43 44 46 49 53 56 57 55 50 47 43 39 36 33 29 26 22 20 19 18 18 17 17 17 17 19 20 20 20 21 22 24
7 9 9 7 8 12 14 11 4 6 11 13 14 18 20 21 24 25 22 20 18 14 13 15 17 19 20 20 21 19 18 20 25 32 37 33 23 22 33 40 40 42 44 41 38 39 40 39 39 40 40 40 40 41 41 43 45 48 52 55 56 53 50 46 43 39 36 32 28 25 22 20 18 18 17 16 15 15 16 18 19 19 20 20 22 24
10 11 10 8 8 8 6 3 5 10 14 9 5 10 18 24 27 27 23 21 18 16 19 23 24 24 25 25 22 18 21 30 36 43 47 39 28 29 39 45 45 43 43 41 38 38 40 38 37 37 37 37 37 39 40 43 45 48 51 54 54 52 49 45 42 38 35 31 27 24 21 19 18 17 16 14 14 14 16 18 18 19 19 20 22 24
13 11 8 8 7 4 4 7 10 8 3 1 5 13 18 20 20 20 18 18 18 18 22 24 22 25 27 24 22 24 30 34 34 41 48 42 34 37 43 46 48 45 42 41 38 37 36 34 33 34 33 32 34 37 40 42 45 48 51 52 53 51 48 44 41 37 34 30 27 23 21 19 18 16 14 13 13 14 16 18 17 18 19 20 22 23
17 12 8 8 8 6 8 11 10 7 5 6 12 15 16 16 15 13 12 13 14 18 22 19 17 23 27 24 27 31 26 17 15 29 47 44 35 39 45 45 47 44 39 36 32 29 27 27 28 28 26 28 32 35 38 40 44 48 50 52 52 50 47 44 40 37 33 29 26 23 20 19 17 15 13 12 13 15 16 16 17 18 19 21 22 23
17 14 11 9 8 8 10 8 7 8 8 13 18 21 21 15 9 8 7 8 10 19 24 18 16 24 26 25 29 22 9 5 6 18 39 43 32 34 40 39 38 35 30 26 23 21 20 22 24 24 23 25 29 32 35 39 44 48 50 52 52 49 47 43 39 36 32 28 25 22 20 18 16 13 12 12 13 15 16 15 16 18 20 21 22 23
19 13 12 11 7 7 9 7 7 10 9 12 20 26 25 14 7 7 5 8 13 24 27 19 19 24 22 24 27 14 3 7 7 13 36 45 32 31 34 30 27 26 23 21 20 19 19 20 21 23 22 24 28 31 35 39 43 47 50 52 52 50 47 43 39 35 31 27 24 21 19 18 15 12 11 13 14 15 15 15 16 18 20 21 22 23
18 10 11 13 10 11 13 9 7 8 6 8 17 20 13 10 15 8 8 11 16 26 28 20 19 22 21 23 23 11 6 10 11 19 39 42 31 30 31 25 24 24 22 22 20 19 20 20 21 22 22 24 27 30 34 39 42 47 50 52 53 51 47 42 38 33 29 26 23 21 19 16 13 11 12 13 14 14 14 15 16 18 20 21 22 23
13 10 11 14 13 15 15 10 8 7 4 9 17 13 9 17 12 9 12 13 14 19 23 21 19 22 25 23 16 11 16 26 31 37 41 35 30 31 28 25 27 26 25 25 23 22 23 22 22 23 22 24 27 31 35 39 43 48 52 53 53 50 45 40 36 32 29 25 22 20 18 15 12 12 12 13 13 14 14 15 17 18 19 21 21 22
8 7 9 12 13 13 12 10 10 8 7 13 18 13 15 13 7 11 16 21 20 18 21 25 23 24 26 24 21 22 29 38 42 42 39 38 38 37 33 30 31 30 29 29 28 27 27 26 25 24 24 26 29 33 37 40 45 49 53 55 53 48 43 39 35 31 28 24 22 20 17 14 13 12 12 12 12 13 14 15 17 19 20 20 21 22
9 7 7 9 10 9 8 9 9 6 10 19 17 10 11 12 13 16 18 23 24 23 26 28 28 29 29 26 27 31 33 36 38 38 39 41 42 41 40 38 36 35 33 32 31 31 30 29 28 28 29 31 33 35 38 42 46 51 54 54 51 46 42 39 34 30 27 24 21 19 16 14 13 12 12 12 11 12 14 15 17 18 19 20 21 22
10 8 7 7 9 9 8 10 11 8 14 25 20 9 14 27 35 34 25 18 21 28 30 28 29 34 35 30 29 31 32 34 36 38 40 40 41 43 45 43 41 38 36 34 32 31 30 30 30 31 33 34 36 38 41 44 48 53 55 54 50 46 42 37 33 29 26 23 21 18 16 15 14 12 12 11 11 12 13 14 16 18 19 20 21 22
13 15 13 10 11 11 9 10 11 10 16 27 29 25 31 41 48 47 36 25 26 31 31 28 29 31 33 33 32 31 31 33 36 38 40 42 43 44 44 44 43 40 37 35 33 31 31 31 31 32 35 37 39 41 43 46 50 54 56 54 50 46 42 37 33 29 25 23 21 18 17 15 13 12 11 11 11 12 13 14 15 17 18 19 20 21
14 19 18 13 10 11 12 11 13 14 16 25 35 41 44 43 41 41 39 35 35 38 37 34 32 31 31 30 28 29 31 34 37 39 40 42 44 44 44 45 43 41 40 38 35 34 33 32 32 34 36 38 41 43 45 48 51 55 56 53 49 44 40 36 32 28 25 24 21 19 17 15 13 11 10 10 11 12 12 13 14 16 17 18 19 20
7 9 10 9 11 12 10 8 11 16 18 22 31 38 41 42 40 38 38 36 38 42 43 42 41 38 32 28 26 28 33 36 37 38 41 42 43 44 46 46 44 45 46 45 41 37 35 35 36 37 38 40 43 45 47 50 53 53 53 51 47 43 39 34 31 28 26 24 21 19 17 15 12 10 10 10 11 11 12 13 13 15 16 17 18 19
5 8 7 6 8 10 9 8 12 18 19 21 25 26 27 33 37 40 41 40 40 41 41 42 42 38 32 30 32 34 36 39 39 40 41 42 42 43 45 47 48 49 48 45 42 39 38 39 39 39 41 42 44 47 51 54 55 53 50 48 45 42 37 33 30 28 26 23 21 19 16 14 11 9 9 10 12 11 12 12 12 13 15 16 17 19
9 8 6 6 8 11 14 14 15 17 18 20 22 22 20 24 28 31 34 35 36 36 37 39 40 38 36 37 38 37 37 41 44 43 43 42 42 43 46 49 50 49 48 47 45 43 42 43 42 42 43 44 45 49 54 57 57 53 49 47 44 40 36 34 31 28 25 23 21 19 16 13 11 9 9 11 12 11 11 11 11 11 13 14 15 17
11 10 8 8 9 9 9 10 11 11 10 14 22 25 23 24 27 28 30 31 33 36 39 41 43 44 43 43 44 42 41 44 48 49 46 45 46 47 49 51 50 49 48 46 44 43 43 44 43 43 44 45 47 52 57 59 58 53 48 44 41 37 35 33 30 28 25 23 20 18 15 13 11 10 11 11 11 10 10 10 10 10 10 11 13 14
9 10 8 8 11 12 12 14 16 13 10 16 26 31 30 30 30 29 30 32 34 37 39 41 43 44 45 46 48 48 47 49 53 54 51 50 51 51 50 50 51 51 49 46 45 44 44 44 44 45 45 47 51 56 61 61 57 52 47 43 40 37 35 32 29 27 25 22 20 18 16 14 12 12 11 11 10 9 9 8 9 10 10 10 11 12
Wind_Direction
180 219 230 237 233 217 210 216 237 298 2 267 259 252 255 257 267 261 127 119 148 239 252 245 249 260 263 265 265 266 264 257 257 255 257 255 245 248 249 246 247 250 255 256 252 251 248 244 240 234 231 229 228 228 229 229 229 229 229 229 229 228 225 224 225 224 223 223 225 226 229 234 239 248 259 268 281 295 307 314 318 318 318 315 312 310
162 225 240 240 234 203 204 204 205 178 181 233 240 252 256 249 262 268 109 131 151 220 257 252 259 262 261 264 265 259 249 256 260 254 256 258 253 255 252 248 250 255 257 256 252 251 248 244 239 234 231 229 228 228 229 230 229 229 229 229 229 228 226 226 225 224 224 225 226 227 229 234 241 249 256 264 278 294 305 310 313 313 313 311 308 307
200 238 244 217 107 98 92 146 191 208 200 214 224 253 262 254 272 278 101 118 162 220 266 274 276 271 265 262 262 258 237 244 257 258 261 264 260 258 255 251 251 254 257 255 252 250 247 244 239 234 232 229 229 230 230 230 229 229 229 229 229 227 226 225 225 224 225 226 226 229 231 234 240 247 254 262 276 291 301 305 307 309 309 307 306 305
212 246 249 117 128 150 137 151 180 196 200 207 203 234 251 237 280 268 92 117 188 225 284 291 282 270 265 258 256 259 246 245 257 261 263 263 261 257 254 255 254 254 257 256 251 249 248 244 238 235 233 230 228 229 230 230 229 228 229 229 228 226 225 225 225 225 225 225 226 229 232 235 239 245 252 261 274 288 297 302 303 305 305 304 303 302
235 229 106 112 155 177 165 167 185 203 211 211 212 230 247 244 230 246 345 336 235 218 276 293 284 264 244 243 251 260 247 254 263 265 264 263 261 257 253 253 254 255 255 254 251 249 248 245 240 237 234 230 228 229 231 231 230 230 229 229 228 227 226 225 226 225 224 226 227 228 230 234 237 242 249 258 273 284 293 298 300 302 302 301 301 301
249 158 124 127 149 177 184 195 199 207 218 225 219 226 242 256 247 236 26 339 280 243 205 323 304 287 183 200 240 240 236 260 258 252 263 268 265 254 249 248 248 251 252 251 251 251 251 249 243 239 234 232 231 232 233 233 232 232 231 229 228 226 226 226 226 225 226 227 228 228 229 232 236 241 248 257 272 281 287 294 297 299 299 299 301 302
249 128 130 147 160 175 209 230 202 186 217 247 219 219 232 241 248 227 145 266 274 280 316 18 303 287 229 195 214 204 230 256 249 238 251 264 267 258 250 250 246 248 248 246 249 249 250 248 243 240 237 235 235 235 235 234 233 232 231 229 227 226 226 226 226 226 227 228 228 229 230 233 237 243 251 258 269 277 285 292 295 296 296 297 299 301
128 131 136 164 171 185 218 237 185 169 208 247 105 123 175 188 205 195 196 234 272 316 290 196 240 275 268 218 220 227 233 248 259 260 251 247 258 262 257 256 252 248 245 243 244 246 246 246 245 243 240 239 238 237 236 234 232 230 229 229 227 227 227 227 227 227 228 228 229 230 232 236 239 245 253 261 269 277 285 291 293 293 294 297 299 301
107 160 175 169 178 204 216 247 160 174 203 262 91 82 109 127 151 158 203 246 274 323 273 197 187 266 271 193 203 241 234 238 246 252 254 239 249 258 258 258 255 242 235 236 239 242 245 248 250 248 246 244 239 237 237 235 232 230 228 228 227 227 227 227 228 228 228 228 229 230 233 238 242 246 254 263 272 279 285 290 291 291 295 297 298 301
56 188 191 167 183 211 186 40 88 193 201 132 129 95 88 88 85 123 231 258 253 274 253 194 166 244 277 168 145 183 211 227 236 240 249 244 247 257 255 252 245 223 220 227 233 239 245 250 253 251 246 243 239 238 238 235 232 230 228 227 226 226 227 227 228 228 228 228 229 232 236 240 244 248 255 264 273 279 283 287 290 292 295 296 296 299
73 82 226 203 205 154 106 74 28 39 124 138 145 115 102 116 95 116 232 191 261 258 232 196 182 211 273 170 148 165 176 201 217 223 243 250 253 256 252 246 227 205 209 220 227 235 243 248 248 245 243 241 240 239 236 234 232 230 228 227 226 227 227 227 228 228 228 229 230 233 237 241 245 251 257 265 272 277 281 285 288 291 293 294 295 298
133 166 204 212 175 119 104 93 57 61 125 155 160 150 187 220 152 164 177 152 243 258 215 193 192 201 239 238 159 161 168 197 207 214 230 234 244 247 245 241 217 199 206 216 224 235 241 245 243 241 240 237 237 237 234 233 231 229 228 227 226 226 227 227 227 228 228 229 231 234 237 241 245 252 257 264 271 276 281 285 288 291 292 295 298 302
192 205 162 148 174 170 159 115 98 96 174 195 172 162 233 266 256 243 218 184 234 252 113 126 182 211 239 251 218 185 195 219 215 215 226 220 233 239 238 236 216 200 208 219 227 240 244 246 247 245 242 238 238 238 234 232 230 228 227 226 225 226 226 226 227 228 228 229 232 234 238 241 244 251 257 264 270 275 279 284 287 290 293 297 301 304
224 256 143 167 210 193 190 181 186 191 181 190 179 173 208 224 243 255 241 233 257 253 138 132 154 241 260 259 222 211 214 222 212 213 230 234 232 236 236 233 216 204 213 225 233 245 248 249 252 251 247 242 242 241 237 234 230 228 227 225 225 226 226 226 227 228 228 229 232 234 237 241 244 250 256 263 269 273 278 282 286 290 294 298 301 303
237 270 175 171 168 173 190 208 187 117 154 188 177 170 213 203 209 251 261 268 286 298 205 166 181 244 270 267 201 207 218 226 218 216 229 238 234 233 234 222 210 210 220 231 240 248 251 251 253 253 250 246 245 243 240 237 232 228 227 225 224 225 225 225 226 228 228 229 231 233 236 239 243 249 256 262 268 271 277 281 286 291 295 298 301 303
241 273 158 127 103 155 178 241 62 96 148 176 99 170 232 209 198 248 297 296 321 311 262 187 216 251 254 160 141 157 216 218 215 219 227 238 237 236 236 223 214 220 230 239 248 252 251 249 251 254 253 248 244 243 242 240 234 230 228 226 224 225 225 225 226 227 228 229 231 233 236 239 243 249 255 261 267 271 277 282 287 292 296 299 302 305
229 281 103 83 22 133 97 359 58 87 192 154 158 199 202 82 202 227 267 79 95 278 267 216 249 271 274 232 168 170 202 168 185 223 223 231 236 235 238 236 232 233 240 248 253 255 252 249 251 256 256 250 245 245 246 245 239 233 230 226 224 224 225 224 226 227 226 228 230 232 235 238 243 249 254 260 266 271 277 283 288 292 296 300 303 306
218 277 174 140 118 108 29 17 67 2 29 139 191 200 136 59 309 229 259 287 229 257 271 266 269 276 275 264 150 165 200 193 207 225 220 226 233 233 237 241 242 242 246 251 253 254 251 246 248 253 254 251 249 250 251 248 241 235 231 228 225 224 224 223 225 226 226 228 230 232 235 238 243 248 254 259 265 271 277 283 288 293 297 301 305 307
190 252 241 127 18 110 99 211 156 62 32 134 273 267 138 205 181 162 211 245 246 250 273 278 279 276 256 240 214 186 193 202 217 220 217 223 224 225 234 239 241 243 245 246 248 250 245 239 243 249 249 249 250 251 250 246 241 236 231 228 226 225 225 224 224 225 225 227 230 232 235 238 243 248 253 259 265 271 277 284 289 294 300 303 306 309
173 232 242 39 343 97 134 215 194 178 166 126 284 251 279 269 190 176 175 211 242 246 273 282 282 277 238 162 209 209 182 195 212 210 213 219 217 220 230 235 237 240 240 240 245 249 243 237 241 247 248 248 249 250 249 245 240 236 231 227 225 224 224 224 225 225 225 227 229 231 234 238 242 247 253 258 265 272 279 285 291 296 301 304 307 310
118 226 234 108 337 233 193 198 197 194 178 177 203 191 190 194 72 288 235 183 233 239 253 269 273 274 255 113 168 195 170 192 197 197 210 214 220 226 229 232 235 238 239 240 249 251 243 237 241 247 248 247 247 248 247 244 240 234 230 226 223 222 222 223 224 224 225 227 228 230 233 237 241 246 251 258 266 274 281 288 294 299 303 305 308 311
162 210 220 191 206 225 226 205 193 225 189 183 193 187 189 179 148 221 232 197 186 237 237 236 266 271 264 98 129 158 149 191 178 191 209 206 221 229 229 229 231 236 241 246 251 250 241 237 242 247 247 247 248 247 245 242 238 233 229 224 222 221 221 222 223 224 225 226 228 229 232 235 240 245 251 259 267 275 283 290 297 301 304 307 310 312
156 145 214 227 227 226 275 20 41 313 328 222 230 209 192 184 180 205 222 210 170 230 249 233 268 268 258 85 70 141 138 178 187 196 200 202 220 227 226 224 228 238 246 250 250 245 239 239 243 246 246 248 248 247 246 243 238 234 228 224 221 220 221 222 223 224 225 226 227 228 230 234 238 244 251 259 268 277 286 293 299 302 305 308 311 312
114 120 214 242 272 269 67 89 139 171 141 208 238 215 194 202 205 209 232 243 197 221 221 166 246 265 285 84 101 181 143 185 203 206 204 206 221 227 224 222 231 243 247 248 247 242 240 241 244 245 245 246 247 246 246 243 238 233 228 223 221 220 220 221 222 223 224 224 225 226 228 232 237 243 251 260 269 279 287 294 299 302 306 310 311 312
170 188 189 211 258 253 230 208 188 170 193 221 228 200 201 212 210 224 308 291 244 237 224 205 240 257 278 85 143 149 154 206 219 217 219 218 221 224 224 226 237 246 247 247 246 243 241 242 245 247 247 246 247 247 245 242 237 232 227 223 220 219 220 220 221 221 222 222 223 225 227 230 236 243 251 260 271 280 289 295 299 302 307 310 311 312
177 188 179 197 229 229 231 236 212 150 187 222 217 192 198 206 206 211 216 213 235 234 216 218 244 257 280 289 268 235 206 220 215 209 220 226 227 225 227 235 244 248 247 247 247 246 245 246 248 249 249 248 248 247 245 241 236 231 226 222 220 219 219 219 220 220 221 221 221 222 225 229 235 243 251 262 272 281 289 294 299 304 309 311 311 311
166 201 192 206 223 221 232 245 234 117 162 202 202 193 198 206 206 205 215 223 228 212 207 229 243 256 276 281 277 270 258 246 238 235 228 230 235 234 236 246 252 252 251 249 249 249 248 250 251 251 250 249 248 247 244 241 236 230 225 221 219 218 218 218 218 218 219 219 219 221 224 228 234 242 252 263 273 282 289 294 300 306 310 311 310 311
135 230 210 218 228 227 236 246 240 187 189 210 199 193 204 210 206 210 224 220 167 120 235 239 243 254 264 269 271 272 270 262 256 261 253 244 245 244 250 259 259 255 254 251 250 251 252 253 253 252 250 249 247 246 243 239 235 230 225 220 218 217 217 217 217 217 217 216 218 220 223 228 234 242 253 264 274 283 290 296 304 309 310 310 310 310
185 229 221 226 237 236 240 249 249 233 218 225 213 202 207 208 204 212 223 217 184 214 242 246 250 257 258 256 261 267 273 278 278 274 269 265 264 263 265 267 264 260 259 256 254 256 257 258 257 254 251 249 247 244 241 237 232 227 223 219 217 216 216 216 216 215 215 215 216 219 222 227 235 243 255 266 275 284 291 299 307 309 309 309 308 309
194 227 228 231 242 245 246 252 254 249 245 248 239 222 221 225 219 216 224 223 217 230 248 264 263 264 262 258 262 269 277 283 287 284 280 274 267 268 271 270 268 268 265 262 261 262 261 261 260 257 252 249 246 244 241 236 231 226 221 218 217 216 215 214 214 213 213 213 214 218 222 228 236 245 257 268 277 285 294 303 308 308 309 308 307 308
212 227 233 235 244 245 244 248 251 251 252 254 256 254 248 246 240 230 231 227 224 238 253 262 268 269 264 262 263 265 271 279 283 278 274 267 264 269 273 271 271 272 270 268 266 264 263 261 260 256 251 249 248 245 241 237 231 225 220 218 216 215 214 213 212 211 211 211 213 217 222 228 237 249 259 269 278 288 298 306 307 308 308 307 307 308
215 234 238 241 250 243 239 246 247 243 244 251 255 250 246 246 244 236 235 228 220 233 241 243 249 250 252 259 262 261 264 268 267 265 263 262 266 272 271 268 270 271 271 272 270 265 263 260 258 255 253 252 249 244 241 237 231 224 220 218 216 214 213 211 210 209 209 210 213 216 222 230 239 251 261 270 281 292 302 306 306 307 307 305 307 310
198 226 235 234 247 248 246 250 245 222 218 227 233 239 242 246 248 246 246 241 232 232 237 239 240 242 250 256 257 260 262 258 256 257 259 263 271 276 268 266 269 271 273 275 274 270 267 264 262 259 258 255 251 247 244 239 232 226 221 218 216 213 211 209 208 207 207 209 212 216 223 231 240 252 261 272 286 296 303 305 304 305 305 306 309 310
203 220 233 229 240 249 247 249 223 197 226 233 230 237 244 247 247 248 251 250 243 238 242 247 251 254 257 255 252 255 256 256 261 266 268 271 277 275 271 270 271 273 277 278 276 275 273 270 267 263 260 257 252 248 244 237 231 226 222 219 215 211 210 208 206 206 206 208 212 216 223 232 241 252 263 275 289 297 301 302 303 303 304 307 309 309
212 219 226 223 233 244 235 220 219 225 232 235 227 232 238 241 246 252 257 259 254 247 246 249 252 255 256 255 253 251 254 261 269 273 274 275 274 270 270 272 273 274 276 278 278 278 276 273 269 265 261 256 250 244 239 233 228 224 221 217 213 209 208 207 205 204 205 208 211 216 223 232 241 252 264 278 289 295 299 300 301 302 304 308 309 310
220 218 223 224 224 226 199 203 223 239 251 232 231 235 236 238 241 246 252 253 245 242 245 247 248 254 259 259 256 255 260 267 273 274 273 272 269 266 264 267 272 274 276 278 280 280 279 276 274 271 266 259 250 241 236 232 227 223 218 214 210 208 207 205 203 203 205 207 211 216 223 232 242 253 265 278 287 291 296 297 299 302 304 307 309 310
221 217 218 221 211 211 222 221 232 271 301 250 237 236 229 223 219 219 231 243 242 244 247 243 243 254 260 262 263 263 265 269 273 272 272 270 266 264 264 266 270 273 277 280 279 278 279 279 276 272 265 257 248 240 235 231 225 220 216 211 207 206 205 203 202 203 204 207 211 217 224 232 242 254 265 275 283 289 293 295 298 301 304 306 308 309
218 215 212 220 214 211 227 232 234 248 246 234 236 240 238 229 199 179 210 237 245 248 247 239 239 251 257 262 266 266 261 252 251 266 272 273 267 262 263 266 269 273 277 276 271 267 270 270 268 264 256 248 244 240 235 230 223 218 213 208 205 204 203 201 201 202 204 207 211 217 225 233 241 252 264 273 281 287 290 293 297 301 303 306 307 308
218 219 218 227 224 211 224 232 220 225 230 225 233 247 252 237 149 130 222 242 241 247 249 244 242 248 253 260 264 260 219 250 248 259 271 273 268 260 261 264 268 274 276 272 266 261 261 263 261 256 249 244 240 236 232 228 221 216 211 206 204 202 201 201 201 202 204 207 212 218 225 233 242 251 261 271 279 284 287 292 297 300 302 305 306 309
216 217 220 227 228 222 229 233 225 235 240 217 233 252 249 168 138 153 229 232 230 241 246 246 245 245 246 254 260 254 223 235 238 254 266 270 267 261 260 260 263 268 270 268 263 257 256 258 256 253 249 245 239 233 228 224 218 213 209 205 203 202 200 200 200 201 204 206 212 219 225 233 241 249 259 269 276 281 286 292 296 299 301 304 307 311
213 209 212 222 225 225 228 231 236 244 222 212 236 240 146 130 147 203 227 227 229 238 242 241 242 244 242 244 248 239 231 236 242 252 260 264 263 261 259 257 259 261 260 258 255 252 252 251 252 254 252 246 238 230 225 219 213 209 206 204 202 200 199 199 199 200 203 206 211 218 225 232 238 246 257 266 273 279 286 292 296 298 302 305 308 313
205 201 210 219 223 225 226 228 239 242 197 205 228 211 151 148 206 227 229 240 243 244 248 246 245 246 243 238 235 236 240 244 246 250 255 258 259 260 260 258 255 253 251 249 246 245 244 242 241 239 236 234 231 226 222 216 209 206 203 201 200 198 197 197 198 199 202 206 212 218 224 231 236 243 254 263 270 278 286 292 296 300 304 307 311 315
184 185 206 206 209 223 227 221 233 237 187 191 206 198 169 195 234 234 236 245 243 242 249 250 248 251 251 245 241 241 244 247 248 250 253 255 258 260 260 259 255 252 252 250 247 244 242 238 235 231 228 226 224 220 217 212 206 203 200 198 197 195 195 195 196 198 201 205 211 218 222 227 235 242 252 260 268 276 285 292 297 301 305 309 313 317
181 185 209 196 191 208 217 209 215 230 203 189 188 196 203 210 222 231 238 243 240 241 247 249 250 253 253 251 249 248 247 246 248 250 252 252 255 258 260 259 257 254 252 251 250 247 242 237 232 228 225 223 220 216 213 209 205 200 197 195 193 192 193 194 194 197 201 205 211 217 219 223 231 240 249 258 267 276 285 292 296 300 305 310 315 320
188 196 214 215 202 205 216 212 208 223 218 202 200 215 222 219 222 229 235 241 246 248 249 251 254 256 256 253 250 248 248 248 249 252 253 252 254 257 260 260 258 255 253 251 248 245 242 239 234 227 223 220 216 212 209 206 203 198 194 192 192 192 192 192 194 196 200 206 211 213 215 221 227 235 245 257 266 276 284 290 295 300 305 311 316 322
213 216 225 230 226 223 228 225 217 222 225 214 213 221 228 228 227 229 232 239 246 252 255 256 257 259 259 255 248 245 248 251 253 254 255 254 255 256 259 260 260 258 256 251 246 241 236 232 229 227 222 217 212 208 205 203 201 197 193 190 190 191 191 191 193 196 200 206 208 209 213 219 225 230 242 255 264 273 282 287 293 299 305 312 319 326
247 251 253 256 257 248 233 222 229 235 231 222 221 225 231 236 237 237 239 242 246 251 254 258 260 260 259 256 252 252 255 257 257 256 257 256 255 256 258 260 260 259 257 253 247 242 235 229 226 224 220 215 210 205 200 198 196 195 193 190 188 189 189 190 193 197 201 204 204 207 212 216 220 227 240 254 264 271 279 286 293 301 308 317 323 329
307 335 336 309 284 278 285 301 293 281 269 252 241 237 238 241 244 245 247 250 252 254 256 258 261 263 261 259 258 257 259 262 261 259 259 259 257 257 260 263 263 259 255 250 244 240 237 234 231 227 221 215 208 202 197 193 191 192 193 191 189 188 188 189 193 197 200 201 200 205 210 210 213 224 238 253 263 269 278 287 295 303 311 321 329 336
290 302 306 297 288 284 289 298 301 300 295 284 275 270 266 267 268 265 262 262 264 266 267 268 268 268 264 261 261 259 259 261 263 262 260 259 258 259 264 268 266 261 254 249 244 242 241 239 235 229 223 216 208 200 195 190 188 189 190 190 189 188 189 191 193 194 196 197 199 204 205 203 207 219 233 247 259 265 274 283 291 302 314 325 337 345
279 272 267 276 275 268 273 281 283 286 290 287 287 287 287 288 287 279 274 273 272 272 273 273 272 270 266 263 263 261 258 260 264 265 262 260 260 262 265 266 264 259 254 249 244 242 242 240 236 230 221 214 207 199 192 189 187 186 187 188 188 190 192 193 192 191 192 195 199 201 199 197 202 214 228 241 253 262 272 282 289 299 313 327 339 347
250 255 256 263 266 267 274 282 285 287 284 281 286 291 294 295 291 284 280 279 276 274 274 272 270 270 270 268 267 264 261 261 264 265 263 262 262 263 263 262 260 257 254 248 242 240 238 233 229 225 218 211 203 196 190 188 185 183 184 187 189 191 194 194 192 191 191 194 197 195 192 192 199 211 224 234 242 254 269 285 298 309 321 332 340 345